JAS-2 (FO-29)

Last updated on Mon Sep 21 2026 00:03:14 GMT+0000 (Coordinated Universal Time)

1 24278U 96046B 26263.46310107 .00000004 00000+0 40513-4 0 9999 2 24278 98.5163 99.2721 0349370 209.0394 149.0910 13.53278362486057
UTC large
Height (km)
Speed (km/s)
/
Latitude / Longitude
Inclination (degrees)
Orbital Period (minutes)
Azimuth
Elevation
Range (km)
Doppler Factor

Next 0 passes for location: London (51.5072 / 0.1276)

No passes found over London.
JAS-2 (FO-29)